User: anonymous
Location: Unspecified
(0.0000°N, 0.0000°E)
Time: 04:22:14
(UTC+02:00)
Language:

Cosmos 1515 Rocket - Orbit

View from above orbital plane
View from above orbital plane
View from above satellite
View from above satellite

Ground track
Ground track

The orbit data is extracted from the following two-line orbital elements,

1 14552U 83122B   14273.51429906  .00000559  00000-0  65858-4 0  9834
2 14552 082.5219 283.8186 0017798 179.9965 332.5362 14.82899508662338
Epoch (UTC): 30 September 2014 12:20:35
Eccentricity: 0.0017798
inclination: 82.5219°
perigee height: 608 km
apogee height: 632 km
right ascension of ascending node: 283.8186°
argument of perigee: 179.9965°
revolutions per day: 14.82899508
mean anomaly at epoch: 332.5362°
orbit number at epoch: 66233

The dashed part of the orbit path shows where the satellite is in the earth's shadow,  

DLR